Location: Hopville
(44.8032°N, 123.1329°W)
Time: 04:44:52
(UTC+00:00)

Nadezhda 4 Rocket - Pass Details

Date: 24 January 2021
Orbit: 949 x 993 km, 82.9° (Epoch: 26 February)

Event Time Altitude Azimuth Distance (km) Brightness Sun altitude
Rises 13:56:49 0° 347° (NNW) 3,637 6.8 -18.2°
Reaches altitude 10° 13:59:23 10° 342° (NNW) 2,684 6.0 -17.7°
Maximum altitude 14:05:15 50° 269° (W) 1,201 4.1 -16.7°
Drops below altitude 10° 14:11:04 10° 196° (SSW) 2,668 6.2 -15.7°
Sets 14:13:37 0° 191° (S) 3,612 7.0 -15.2°
